[[{"header":{"parameterUnit":"m.s-1","parameterCategory":1,"la1":30.2992,"la2":30.254,"lo1":-89.0895,"lo2":-89.0443,"dy":0.0025,"dx":0.0025,"nx":19,"ny":19,"refTime":"2026-05-23T03:00:00:Z","depth":0,"parameterNumber":2,"parameterNumberName":"U-component_of_WINDS"},"data":[0,0,0,-4.1418,-4.1419,-4.145,-4.145,-4.1522,-4.1523,0,0,0,0,0,0,0,0,0,0,0,-4.1429,-4.143,-4.1417,-4.1419,-4.145,-4.145,-4.1522,-4.1523,0,0,0,0,0,0,0,0,0,0,0,-4.1429,-4.143,-4.1432,-4.1419,-4.145,-4.145,-4.1522,-4.1486,0,0,0,0,0,0,0,0,0,0,-4.145,-4.1482,-4.143,-4.1432,-4.1419,-4.145,-4.145,-4.1484,-4.1489,-4.1522,0,-4.1558,0,-4.1542,-4.153,-4.153,0,0,0,-4.1403,-4.1479,-4.1468,-4.1432,-4.142,-4.145,-4.1432,-4.1486,-4.1491,-4.1528,-4.1559,-4.1561,-4.1543,-4.1531,-4.1531,-4.1774,-4.1776,0,0,-4.1402,-4.1446,-4.1465,-4.1472,-4.147,-4.1431,-4.1433,-4.1489,-4.1525,-4.1559,-4.1562,-4.1544,-4.1531,-4.1532,-4.1773,-4.1775,0,0,0,-4.1407,-4.1446,-4.1433,-4.147,-4.1473,-4.1432,-4.1434,-4.1523,-4.1515,-4.1562,-4.1545,-4.1532,-4.1533,-4.1771,-4.1774,-4.1907,0,0,0,-4.1405,-4.1449,-4.1433,-4.1461,-4.1473,-4.1499,-4.1468,-4.1511,-4.1516,-4.1545,-4.1532,-4.1534,-4.1768,-4.1772,-4.1899,-4.1963,0,0,0,-4.142,-4.145,-4.1462,-4.1463,-4.1478,-4.1497,-4.1491,-4.1511,-4.1506,-4.153,-4.1534,-4.1767,-4.1771,-4.1891,-4.195,-4.2037,0,0,0,-4.1449,-4.1582,-4.1465,-4.1607,-4.1478,-4.158,-4.1491,-4.1564,-4.1601,-4.1532,-4.1769,-4.1773,-4.1889,-4.1943,-4.203,-4.2117,-4.2158,0,0,-4.1642,-4.1607,-4.1687,-4.1583,-4.1716,-4.1571,-4.1724,-4.1716,-4.1679,-4.1744,-4.175,-4.1901,-4.195,-4.2035,-4.2376,-4.2409,0,0,0,-4.1763,-4.1821,-4.1847,-4.1883,-4.188,-4.1881,-4.1845,-4.1841,-4.1894,-4.1722,-4.1956,-4.1983,-4.2032,-4.2071,-4.2099,-4.2136,-4.1794,-4.1793,-4.1793,-4.2102,-4.2044,-4.217,-4.2116,-4.2153,-4.2112,-4.2135,-4.2123,-4.2057,-4.2113,-4.2132,-4.2345,-4.2393,-4.2414,-4.2453,-4.2174,-4.2175,-4.2175,-4.2176,-4.2378,-4.2449,-4.2354,-4.2442,-4.238,-4.2454,-4.2419,-4.2369,-4.2427,-4.2327,-4.2367,-4.2261,-4.2452,-4.2483,-4.2185,-4.2184,-4.2182,-4.2181,-4.2181,-4.2591,-4.2615,-4.2607,-4.265,-4.269,-4.263,-4.2689,-4.2631,-4.2577,-4.2616,-4.2628,-4.2625,-4.2614,-4.2626,-4.2627,-4.2628,-4.2628,-4.2629,-4.2629,-4.2816,-4.2802,-4.2859,-4.2863,-4.2876,-4.2887,-4.2845,-4.2856,-4.2853,-4.2806,-4.2806,-4.2732,-4.2482,-4.2419,-4.264,-4.2638,-4.2637,-4.2636,-4.2635,-4.3115,-4.3036,-4.3125,-4.3138,-4.3135,-4.3177,-4.3101,-4.3128,-4.3129,-4.3159,-4.3075,-4.2901,-4.2861,-4.2839,-4.2786,-4.3089,-4.3089,-4.3089,-4.3089,-4.3294,-4.3267,-4.3341,-4.3365,-4.3382,-4.3321,-4.3419,-4.3387,-4.3341,-4.3337,-4.3285,-4.3211,-4.319,-4.3162,-4.3133,-4.3082,-4.3455,-4.3455,-4.3455,-4.3472,-4.3444,-4.354,-4.3493,-4.3485,-4.348,-4.357,-4.36,-4.3532,-4.3469,-4.3332,-4.3317,-4.3196,-4.316,-4.3094,-4.305,-4.2956,0,0]},{"header":{"parameterUnit":"m.s-1","parameterCategory":1,"la1":30.2992,"la2":30.254,"lo1":-89.0895,"lo2":-89.0443,"dy":0.0025,"dx":0.0025,"nx":19,"ny":19,"refTime":"2026-05-23T03:00:00:Z","depth":0,"parameterNumber":3,"parameterNumberName":"V-component_of_WINDS"},"data":[0,0,0,-1.0868,-1.0868,-1.0878,-1.0878,-1.0884,-1.0884,0,0,0,0,0,0,0,0,0,0,0,-1.0863,-1.0863,-1.0868,-1.0868,-1.0878,-1.0878,-1.0884,-1.0884,0,0,0,0,0,0,0,0,0,0,0,-1.0863,-1.0863,-1.0864,-1.0868,-1.0878,-1.0878,-1.0884,-1.0879,0,0,0,0,0,0,0,0,0,0,-1.087,-1.0865,-1.0863,-1.0864,-1.0868,-1.0878,-1.0878,-1.0878,-1.0879,-1.0878,0,-1.0879,0,-1.0882,-1.0885,-1.0885,0,0,0,-1.0869,-1.0865,-1.0869,-1.0864,-1.0868,-1.0878,-1.0874,-1.0879,-1.0879,-1.0879,-1.0879,-1.0879,-1.0882,-1.0885,-1.0885,-1.0879,-1.0879,0,0,-1.0868,-1.0864,-1.0868,-1.0869,-1.0869,-1.0873,-1.0874,-1.0879,-1.0878,-1.0879,-1.0879,-1.0882,-1.0885,-1.0885,-1.0879,-1.0879,0,0,0,-1.0866,-1.0864,-1.0868,-1.0869,-1.0871,-1.0873,-1.0874,-1.0878,-1.088,-1.0879,-1.0882,-1.0885,-1.0885,-1.0879,-1.0879,-1.0872,0,0,0,-1.0866,-1.0863,-1.0867,-1.0865,-1.0871,-1.0875,-1.0873,-1.0879,-1.088,-1.0882,-1.0885,-1.0885,-1.0879,-1.0879,-1.0872,-1.0869,0,0,0,-1.0863,-1.0862,-1.0863,-1.0865,-1.0869,-1.0875,-1.0877,-1.088,-1.0882,-1.0885,-1.0885,-1.0879,-1.0879,-1.0872,-1.0869,-1.0865,0,0,0,-1.0859,-1.0857,-1.0863,-1.0862,-1.0869,-1.0871,-1.0877,-1.0879,-1.0881,-1.0885,-1.0879,-1.0879,-1.0873,-1.087,-1.0865,-1.086,-1.0858,0,0,-1.0855,-1.0857,-1.0856,-1.0861,-1.0862,-1.087,-1.0868,-1.0873,-1.0877,-1.0878,-1.0878,-1.0872,-1.0869,-1.0865,-1.0848,-1.0846,0,0,0,-1.0853,-1.0852,-1.0853,-1.0855,-1.0859,-1.0861,-1.0867,-1.0869,-1.0869,-1.0877,-1.087,-1.0868,-1.0866,-1.0864,-1.0862,-1.0859,-1.0878,-1.0878,-1.0878,-1.0841,-1.0845,-1.0844,-1.0849,-1.085,-1.0855,-1.0855,-1.0858,-1.0863,-1.086,-1.0861,-1.085,-1.0847,-1.0846,-1.0843,-1.0859,-1.0859,-1.0859,-1.0859,-1.0834,-1.0833,-1.0837,-1.0838,-1.0841,-1.0841,-1.0844,-1.0847,-1.0845,-1.0851,-1.0849,-1.0854,-1.0844,-1.0842,-1.0858,-1.0858,-1.0858,-1.0858,-1.0858,-1.0826,-1.0826,-1.0828,-1.0829,-1.0829,-1.0833,-1.0831,-1.0834,-1.0838,-1.0836,-1.0835,-1.0835,-1.0835,-1.0835,-1.0835,-1.0835,-1.0835,-1.0835,-1.0835,-1.0817,-1.0819,-1.0818,-1.082,-1.082,-1.0821,-1.0823,-1.0823,-1.0823,-1.0825,-1.0825,-1.0829,-1.0843,-1.0846,-1.0834,-1.0834,-1.0835,-1.0835,-1.0835,-1.0808,-1.081,-1.0808,-1.0808,-1.0809,-1.0807,-1.0811,-1.0809,-1.0809,-1.0807,-1.081,-1.082,-1.0823,-1.0824,-1.0826,-1.0811,-1.0811,-1.0811,-1.0811,-1.0801,-1.0802,-1.08,-1.0799,-1.0798,-1.08,-1.0795,-1.0795,-1.0797,-1.0796,-1.0799,-1.0802,-1.0803,-1.0805,-1.0806,-1.0809,-1.0789,-1.0789,-1.0789,-1.0795,-1.0796,-1.0792,-1.0793,-1.0793,-1.0793,-1.0787,-1.0784,-1.0785,-1.0788,-1.0795,-1.0796,-1.0802,-1.0804,-1.0807,-1.081,-1.0814,0,0]}]]